Kelso-Longview, WA
on Wednesday, November 21, 2012

Wednesday
Previous Day Next Day
Daily Summary
 ActualAverage (KSPB)Record (KSPB)
Temperature
Mean Temperature °F °F  
Max Temperature 50°F °F 60°F (2002)
Min Temperature 37°F °F 23°F (2013)
Degree Days
Heating Degree Days 22    
Month to date heating degree days  
Since 1 July heating degree days  
Cooling Degree Days 0    
Month to date cooling degree days  
Year to date cooling degree days  
Moisture
Dew Point 39°F   
Average Humidity 80    
Maximum Humidity 93    
Minimum Humidity 66    
Precipitation
Precipitation 0.29 in in 0.79 in (2006)
Month to date precipitation  
Year to date precipitation  
Wind
Wind Speed 9 mph   
Max Wind Speed 17 mph   
Max Gust Speed 28 mph   
Visibility 10 miles   
Events     

Key: T is trace of precipitation, MM is missing value
Source: NWS Daily Summary
Time(PST)TemperatureDew PointHumidity Pressure Visibility Wind DirectionWind SpeedGust SpeedPrecipitationEvents Conditions
12:15 AM 48.2°F 41.0°F 76% 29.58 in 10.0 miles South 8.1 mph - 0.01 in   Overcast
12:35 AM 46.4°F 42.8°F 87% 29.57 in 10.0 miles SSE 12.7 mph 17.3 mph 0.05 in   Overcast
12:55 AM 46.4°F 42.8°F 87% 29.56 in 9.0 miles SSE 12.7 mph 27.6 mph 0.07 in   Mostly Cloudy
1:15 AM 46.4°F 41.0°F 81% 29.57 in 10.0 miles SSE 13.8 mph 21.9 mph N/A   Mostly Cloudy
1:35 AM 46.4°F 42.8°F 87% 29.59 in 10.0 miles SSE 6.9 mph 19.6 mph N/A   Mostly Cloudy
1:55 AM 46.4°F 42.8°F 87% 29.60 in 10.0 miles South 11.5 mph 18.4 mph N/A   Overcast
2:15 AM 48.2°F 41.0°F 76% 29.60 in 10.0 miles South 9.2 mph - N/A   Overcast
2:35 AM 46.4°F 41.0°F 81% 29.62 in 10.0 miles South 11.5 mph 18.4 mph N/A   Overcast
2:55 AM 46.4°F 39.2°F 76% 29.63 in 10.0 miles SSE 16.1 mph 26.5 mph N/A   Overcast
3:15 AM 46.4°F 39.2°F 76% 29.64 in 10.0 miles SSE 15.0 mph 19.6 mph N/A   Mostly Cloudy
3:35 AM 46.4°F 39.2°F 76% 29.66 in 10.0 miles South 12.7 mph 23.0 mph N/A   Overcast
4:15 AM 46.4°F 39.2°F 76% 29.68 in 10.0 miles SSE 12.7 mph 23.0 mph N/A   Overcast
4:35 AM 46.4°F 41.0°F 81% 29.70 in 10.0 miles SSE 10.4 mph 19.6 mph 0.02 in   Overcast
4:55 AM 46.4°F 39.2°F 76% 29.72 in 10.0 miles South 12.7 mph 21.9 mph 0.02 in   Overcast
5:15 AM 44.6°F 39.2°F 81% 29.74 in 10.0 miles South 11.5 mph 17.3 mph 0.01 in   Overcast
5:35 AM 44.6°F 39.2°F 81% 29.76 in 10.0 miles South 10.4 mph 18.4 mph 0.01 in   Overcast
5:55 AM 44.6°F 39.2°F 81% 29.78 in 10.0 miles SSE 8.1 mph - 0.01 in   Mostly Cloudy
6:15 AM 44.6°F 39.2°F 81% 29.79 in 10.0 miles SE 6.9 mph - 0.01 in   Scattered Clouds
6:35 AM 44.6°F 39.2°F 81% 29.81 in 10.0 miles SSE 8.1 mph - 0.01 in   Partly Cloudy
6:55 AM 44.6°F 39.2°F 81% 29.81 in 10.0 miles SSE 10.4 mph - 0.01 in   Partly Cloudy
7:15 AM 44.6°F 39.2°F 81% 29.82 in 9.0 miles SSE 8.1 mph - N/A   Mostly Cloudy
7:35 AM 44.6°F 39.2°F 81% 29.85 in 10.0 miles South 15.0 mph 20.7 mph 0.02 in   Overcast
7:55 AM 44.6°F 39.2°F 81% 29.85 in 10.0 miles SE 6.9 mph - 0.04 in   Overcast
8:15 AM 44.6°F 39.2°F 81% 29.86 in 10.0 miles SSE 8.1 mph - 0.01 in   Mostly Cloudy
8:35 AM 44.6°F 39.2°F 81% 29.87 in 10.0 miles South 5.8 mph - 0.01 in   Mostly Cloudy
8:55 AM 44.6°F 41.0°F 87% 29.89 in 8.0 miles South 10.4 mph - 0.05 in   Overcast
9:15 AM 44.6°F 39.2°F 81% 29.89 in 10.0 miles SSE 9.2 mph - 0.01 in   Mostly Cloudy
9:35 AM 44.6°F 37.4°F 76% 29.90 in 10.0 miles SSE 10.4 mph - 0.01 in   Mostly Cloudy
9:55 AM 44.6°F 39.2°F 81% 29.91 in 10.0 miles SE 8.1 mph - 0.01 in   Overcast
10:15 AM 44.6°F 39.2°F 81% 29.92 in 10.0 miles SSE 9.2 mph - N/A   Overcast
10:35 AM 46.4°F 41.0°F 81% 29.93 in 10.0 miles SSE 10.4 mph - 0.01 in   Overcast
10:55 AM 46.4°F 39.2°F 76% 29.93 in 10.0 miles SSE 13.8 mph 21.9 mph 0.01 in   Mostly Cloudy
11:15 AM 44.6°F 39.2°F 81% 29.95 in 10.0 miles South 13.8 mph 18.4 mph 0.02 in   Mostly Cloudy
11:35 AM 46.4°F 39.2°F 76% 29.95 in 10.0 miles SSE 10.4 mph 20.7 mph 0.02 in   Overcast
11:55 AM 48.2°F 41.0°F 76% 29.95 in 10.0 miles SSE 17.3 mph 23.0 mph 0.02 in   Overcast
12:15 PM 44.6°F 39.2°F 81% 29.97 in 10.0 miles South 5.8 mph 24.2 mph N/A   Overcast
12:35 PM 48.2°F 39.2°F 71% 29.99 in 10.0 miles SSW 9.2 mph 17.3 mph N/A   Overcast
12:55 PM 46.4°F 39.2°F 76% 30.00 in 10.0 miles SSW 5.8 mph - N/A   Overcast
1:15 PM 48.2°F 39.2°F 71% 30.00 in 10.0 miles SSE 5.8 mph - 0.01 in   Overcast
1:35 PM 48.2°F 39.2°F 71% 30.02 in 10.0 miles Calm Calm - 0.01 in   Overcast
1:55 PM 48.2°F 39.2°F 71% 30.02 in 10.0 miles SE 6.9 mph - 0.02 in   Mostly Cloudy
2:15 PM 48.2°F 39.2°F 71% 30.03 in 10.0 miles South 9.2 mph - N/A   Mostly Cloudy
2:35 PM 50.0°F 39.2°F 66% 30.05 in 10.0 miles South 6.9 mph - N/A   Overcast
2:55 PM 48.2°F 39.2°F 71% 30.07 in 10.0 miles NNW 11.5 mph - 0.01 in   Overcast
3:15 PM 44.6°F 37.4°F 76% 30.09 in 10.0 miles Calm Calm - N/A   Overcast
3:35 PM 46.4°F 37.4°F 71% 30.10 in 10.0 miles NW 4.6 mph - N/A   Mostly Cloudy
3:55 PM 46.4°F 37.4°F 71% 30.12 in 10.0 miles Calm Calm - N/A   Mostly Cloudy
4:15 PM 44.6°F 37.4°F 76% 30.14 in 10.0 miles SSE 5.8 mph - N/A   Clear
4:35 PM 44.6°F 37.4°F 76% 30.15 in 10.0 miles SSE 5.8 mph - N/A   Mostly Cloudy
4:55 PM 44.6°F 37.4°F 76% 30.16 in 10.0 miles South 5.8 mph - N/A   Scattered Clouds
5:15 PM 44.6°F 37.4°F 76% 30.16 in 10.0 miles SE 3.5 mph - N/A   Partly Cloudy
5:35 PM 44.6°F 37.4°F 76% 30.18 in 10.0 miles Calm Calm - N/A   Partly Cloudy
5:55 PM 44.6°F 37.4°F 76% 30.19 in 10.0 miles SSE 6.9 mph - N/A   Mostly Cloudy
6:15 PM 44.6°F 37.4°F 76% 30.20 in 10.0 miles SSE 4.6 mph - N/A   Overcast
6:35 PM 44.6°F 37.4°F 76% 30.22 in 10.0 miles SE 3.5 mph - N/A   Overcast
6:55 PM 44.6°F 37.4°F 76% 30.23 in 10.0 miles SSE 4.6 mph - N/A   Overcast
7:15 PM 42.8°F 39.2°F 87% 30.24 in 10.0 miles South 4.6 mph - 0.01 in   Overcast
7:35 PM 44.6°F 37.4°F 76% 30.25 in 10.0 miles SE 5.8 mph - 0.01 in   Overcast
7:55 PM 42.8°F 39.2°F 87% 30.26 in 10.0 miles South 3.5 mph - 0.01 in   Overcast
8:15 PM 44.6°F 37.4°F 76% 30.26 in 10.0 miles SE 6.9 mph - 0.01 in   Overcast
8:35 PM 42.8°F 37.4°F 81% 30.27 in 10.0 miles ESE 3.5 mph - 0.01 in   Overcast
8:55 PM 42.8°F 37.4°F 81% 30.28 in 10.0 miles Calm Calm - 0.01 in   Scattered Clouds
9:15 PM 39.2°F 35.6°F 87% 30.28 in 10.0 miles Calm Calm - N/A   Clear
9:35 PM 39.2°F 35.6°F 87% 30.29 in 10.0 miles Calm Calm - N/A   Scattered Clouds
9:55 PM 39.2°F 35.6°F 87% 30.30 in 10.0 miles Calm Calm - N/A   Overcast
10:15 PM 39.2°F 37.4°F 93% 30.30 in 10.0 miles Calm Calm - N/A   Overcast
10:35 PM 39.2°F 35.6°F 87% 30.31 in 10.0 miles Calm Calm - N/A   Mostly Cloudy
10:55 PM 39.2°F 35.6°F 87% 30.31 in 10.0 miles Calm Calm - N/A   Partly Cloudy
11:15 PM 37.4°F 35.6°F 93% 30.31 in 10.0 miles Calm Calm - N/A   Clear
11:35 PM 37.4°F 35.6°F 93% 30.32 in 10.0 miles Calm Calm - N/A   Clear
11:55 PM 37.4°F 33.8°F 87% 30.32 in 10.0 miles Calm Calm - N/A   Clear
Moon Phase
Nov. 21 Nov. 28 Dec. 06 Dec. 13 Dec. 20
Sunrise:07:21 AM (PST) Moon Rise:01:10 PM (PST)11/21
Sunset:04:33 PM (PST) Moon Set:12:26 AM (PST)11/21

Copyright © 2014 The Weather Underground, Inc.